Regional Weather Roundup
Issued by NWS

Home | Current Version | Previous Version | Graphics & Text | Print | Product List | Glossary On
Versions: 1 2 3 4 5 6 7 8 9 10 11 12 13 14 15 16 17 18 19 20 21 22 23 24 25 26 27 28 29 30 31 32 33 34 35 36 37 38 39 40 41 42 43 44 45 46 47 48 49 50
000
ASUS45 KABQ 060010
RWRNM
NEW MEXICO REGIONAL WEATHER ROUNDUP
NATIONAL WEATHER SERVICE ALBUQUERQUE NM
600 PM MDT SUN JUL 05 2015

NOTE: "FAIR" MEANS FEW OR NO CLOUDS BELOW 12,000 FEET AGL WITH NO
       SIGNIFICANT WEATHER OR OBSTRUCTIONS TO VISION.

      THIS PRODUCT IS RELEASED AS TWO VERSIONS.  ONE VERSION NEAR
      THE TOP OF THE HOUR CONTAINING PRELIMINARY DATA FROM ALBUQUERQUE
      AND OTHER STATIONS.  A FINAL VERSION WITH ADDITIONAL DATA IS
      ISSUED ABOUT 10 MINUTES AFTER THE HOUR.

NMZ501-503-504-510>518-060100-
NORTHWEST PLATEAU/NORTHCENTRAL MOUNTAINS

CITY           SKY/WX    TMP DP  RH WIND       PRES   REMARKS
FARMINGTON     MOSUNNY   84  49  29 N17G25    30.04S
6HR MIN TEMP:  76; 6HR MAX TEMP:  88;

LOS ALAMOS     RAIN      68  57  67 NW13      30.21R
SANTA FE       MOSUNNY   83  46  27 SW7       30.10S
6HR MIN TEMP:  79; 6HR MAX TEMP:  86;

TAOS           PTSUNNY   82  48  30 SW15      30.14F
ANGEL FIRE     MOCLDY    70  52  53 SW10G16   30.25S

$$
NMZ402-403-502-505>509-060100-
WESTCENTRAL MOUNTAINS/SOUTHWEST MOUNTAINS

CITY           SKY/WX    TMP DP  RH WIND       PRES   REMARKS
GALLUP         PTSUNNY   82  46  28 NW6       30.13F
6HR MIN TEMP:  77; 6HR MAX TEMP:  86;

GRANTS         LGT RAIN  63  59  88 SE9       30.22R
SILVER CITY      N/A     77  57  50 NW18G24   30.13S

$$
NMZ407-409-411-412-060100-
SOUTHERN DESERTS

CITY           SKY/WX    TMP DP  RH WIND       PRES   REMARKS
LORDSBURG      FAIR      82  54  36 W15       30.04S
DEMING         MOSUNNY   84  60  44 W9        30.02S
6HR MIN TEMP:  79; 6HR MAX TEMP:  86;

LAS CRUCES     MOSUNNY   89  55  31 W14       30.01S
HOLLOMAN AFB   PTSUNNY   90  54  29 S8        29.94S
ALAMOGORDO     PTSUNNY   90  54  29 SW8       29.97S
T OR C         LGT RAIN  74  60  61 N12G37    30.02F
6HR MIN TEMP:  73; 6HR MAX TEMP:  90; 6HR PCP:  0.01;


$$
NMZ519>523-060100-
CENTRAL VALLEYS/CENTRAL HIGHLANDS

CITY           SKY/WX    TMP DP  RH WIND       PRES   REMARKS
ALBUQUERQUE    CLOUDY    71  62  73 SE15      30.07F
6HR MIN TEMP:  71; 6HR MAX TEMP:  90; 6HR PCP:  0.02;

DOUBLE EAGLE   PTSUNNY   79  54  41 SE20      30.10S
MORIARTY ARPT    N/A     79  51  36 W20G29    30.12R
6HR MIN TEMP:  79; 6HR MAX TEMP:  90;

CLINES CORNERS MOSUNNY   81  48  31 SW8G18    30.14F
6HR MIN TEMP:  72; 6HR MAX TEMP:  83; 6HR PCP: TRACE;

BELEN          MOCLDY    75  62  63 E5        30.07F
6HR MIN TEMP:  72; 6HR MAX TEMP:  92; 6HR PCP:  0.26;

SOCORRO        PTSUNNY   81  56  41 W18G25    30.04S
6HR MIN TEMP:  68; 6HR MAX TEMP:  86;


$$
NMZ524>526-539-540-060100-
SOUTHCENTRAL MOUNTAINS

CITY           SKY/WX    TMP DP  RH WIND       PRES   REMARKS
RUIDOSO        PTSUNNY   73  54  49 CALM      30.20S

$$
NMZ527>531-060100-
NORTHEAST HIGHLANDS/NORTHEAST PLAINS

CITY           SKY/WX    TMP DP  RH WIND       PRES   REMARKS
LAS VEGAS      PTSUNNY   77  55  46 N8        30.13R
6HR MIN TEMP:  77; 6HR MAX TEMP:  84;

RATON          MOSUNNY   83  53  35 S15       30.03F
6HR MIN TEMP:  71; 6HR MAX TEMP:  87; 6HR PCP:  0.04;

CLAYTON        CLOUDY    88  54  31 S20G28    29.95F
6HR MIN TEMP:  88; 6HR MAX TEMP:  95;


$$
NMZ532>537-060100-
EASTCENTRAL PLAINS

CITY           SKY/WX    TMP DP  RH WIND       PRES   REMARKS
TUCUMCARI      MOSUNNY   94  52  24 S16G24    29.89F
6HR MIN TEMP:  92; 6HR MAX TEMP:  98;

CANNON AFB     MOSUNNY   87  59  39 S9        29.96F
6HR MIN TEMP:  85; 6HR MAX TEMP:  91;

CLOVIS AIRPORT MOSUNNY   88  55  33 SE13        N/A

$$
NMZ028-029-538-060100-
SOUTHEAST PLAINS

CITY           SKY/WX    TMP DP  RH WIND       PRES   REMARKS
ROSWELL        CLOUDY    90  57  32 SW8       29.92S
6HR MIN TEMP:  85; 6HR MAX TEMP:  97; 6HR PCP:  0.03;

ARTESIA        CLOUDY    90  61  37 S15G21    29.93S
CARLSBAD       PTSUNNY   89  60  37 W10       29.89F
6HR MIN TEMP:  87; 6HR MAX TEMP:  98;

HOBBS          MOSUNNY   93  54  26 SE10      29.94F


$$


USA.gov is the U.S. government's official web portal to all federal, state and local government web resources and services.